Temp
15 15 15 16 16 15 15 15 16 16 16 17 17 17 18 18 18 18 18 18 18 18 19 19 19 18 18 19 18 18 18 17 17 14 16 22 25 25 25 25 25 25 24 24 25 24 24 24 24 25 25 25 25 26 26 28 27 26 26 25 24 24 25 27 28 28 26 25 24 24 25 25 24 24 24 24 24 24 24 24 24 25 28 28 27 27 26 26
15 15 15 15 16 16 16 16 16 16 16 17 17 17 17 18 18 18 18 18 18 18 19 19 19 18 18 19 18 18 18 16 15 14 19 25 25 24 24 25 25 25 24 24 25 24 24 24 25 25 25 25 26 26 27 28 28 26 26 25 25 26 28 29 29 27 26 25 24 24 25 25 25 24 24 24 25 24 24 24 24 26 28 27 27 27 26 27
15 14 15 15 15 16 16 16 16 16 16 17 17 17 18 18 18 18 18 18 18 18 18 19 19 18 19 18 18 18 16 15 17 20 24 27 25 25 24 24 25 25 25 25 25 25 25 25 25 25 25 25 26 26 27 28 28 27 27 26 26 28 29 29 28 28 27 25 25 24 25 25 24 24 24 25 25 24 24 24 25 27 27 27 27 27 27 27
15 14 14 15 15 16 16 16 16 16 17 17 17 17 18 18 18 17 17 18 18 18 18 19 19 18 19 18 18 17 15 17 22 25 26 27 26 26 25 24 25 25 26 26 25 25 25 26 26 26 26 25 26 27 27 28 29 28 27 27 28 29 29 29 28 27 27 26 25 25 25 25 24 24 24 25 25 24 24 25 26 27 27 27 27 27 27 27
15 15 14 15 15 15 16 16 16 17 17 17 18 18 18 18 18 17 17 18 18 18 18 18 18 19 18 18 18 16 16 21 25 26 26 26 26 26 25 25 24 25 25 25 25 25 25 26 26 26 26 25 26 27 27 28 30 29 28 29 29 29 29 28 28 27 27 26 26 25 25 25 24 24 25 25 25 25 25 27 29 28 28 28 27 28 28 28
15 15 15 15 15 15 16 16 17 17 17 17 18 18 18 18 18 18 17 17 17 17 18 18 18 19 18 18 17 16 19 24 25 26 27 27 26 26 25 25 24 25 25 25 25 25 25 25 25 26 26 26 26 27 28 29 30 29 29 30 30 31 30 28 28 27 26 26 26 25 26 25 24 25 25 25 25 26 26 27 29 29 29 29 28 28 28 27
16 15 15 15 15 15 16 16 17 17 17 17 18 18 19 18 18 18 17 17 17 17 17 18 18 18 18 17 17 16 19 23 25 27 27 27 26 26 25 25 24 24 24 24 24 25 25 25 25 26 26 27 27 28 29 30 31 30 30 31 31 31 30 29 28 27 27 26 26 26 26 25 25 25 26 26 25 25 25 25 28 30 29 29 29 28 28 27
16 15 15 15 15 15 16 16 17 17 17 18 18 18 19 19 19 18 18 17 17 17 17 17 18 18 18 17 17 18 20 24 27 27 27 27 26 25 25 24 23 24 24 24 24 25 25 25 26 26 26 27 28 29 29 30 30 30 30 31 32 31 29 29 28 28 27 27 26 26 26 25 26 26 26 26 26 25 25 25 28 30 29 29 29 28 28 27
16 15 15 15 15 16 16 16 17 17 17 18 18 19 19 19 19 19 18 18 17 17 17 17 17 17 17 17 18 21 24 27 28 27 27 27 27 26 25 24 23 24 24 24 25 25 25 26 26 27 27 28 29 30 30 30 30 31 32 32 32 30 29 29 28 28 27 27 27 27 26 26 26 26 26 27 27 26 25 26 29 30 29 29 29 29 28 28
16 16 15 15 16 16 16 17 17 17 17 18 18 19 19 19 19 19 19 18 17 17 17 17 17 17 17 17 18 23 27 28 28 27 27 27 27 26 25 24 24 24 24 24 24 25 26 26 27 28 28 29 30 30 31 30 30 32 32 33 33 30 29 29 28 28 27 27 27 27 27 26 26 26 27 28 28 26 25 26 29 29 29 29 29 29 29 28
16 15 15 16 16 16 16 17 17 18 18 18 19 19 20 20 20 20 19 19 18 18 17 16 17 17 17 17 20 25 28 27 28 27 27 27 27 26 25 25 25 24 24 24 24 26 26 27 28 28 28 29 30 30 31 31 32 32 32 33 33 30 30 29 28 28 27 27 28 28 27 26 26 26 28 28 27 27 26 26 26 27 29 29 29 29 28 29
15 15 15 16 16 17 17 17 18 18 18 19 19 20 20 20 20 20 20 19 19 19 17 17 17 17 17 17 20 26 28 28 28 27 27 27 27 27 26 25 25 25 25 25 25 26 27 27 28 27 28 29 29 30 31 31 32 32 32 33 32 30 30 29 28 28 28 28 28 28 26 26 26 26 28 29 27 27 26 25 24 25 29 30 29 29 28 29
15 15 15 16 16 17 17 17 18 18 19 19 20 20 21 21 21 20 20 20 20 19 18 17 17 17 17 20 23 26 28 28 28 28 27 27 28 28 27 26 26 25 26 26 26 27 27 28 28 27 28 28 29 30 31 31 32 32 32 32 31 29 28 29 29 28 29 28 28 29 25 24 26 27 29 29 28 28 25 24 24 24 28 30 29 29 28 29
14 14 15 16 16 17 17 18 18 19 19 20 20 21 21 22 21 21 21 21 20 19 18 17 17 16 17 22 26 27 27 28 28 28 28 28 28 27 27 27 26 26 26 27 27 28 28 28 28 28 29 29 30 31 31 31 31 31 31 31 31 27 26 30 29 28 29 28 29 29 25 24 27 27 29 30 30 29 26 25 24 25 29 29 29 29 28 29
14 14 15 16 16 17 18 18 18 19 19 20 21 22 22 22 22 21 21 21 21 20 19 17 17 17 18 22 26 27 27 28 28 29 29 29 28 27 27 27 27 27 27 27 28 28 29 29 29 28 29 30 31 30 30 30 30 31 28 26 29 27 27 31 30 29 30 29 29 29 25 26 27 28 30 30 30 29 28 27 27 28 29 29 29 29 28 29
13 14 15 16 17 17 18 18 19 19 19 20 21 22 23 22 23 22 22 22 21 20 19 18 17 17 20 24 26 27 27 28 28 29 29 29 29 28 28 28 27 27 27 28 29 29 29 29 29 29 29 30 30 29 28 27 27 30 27 24 26 27 27 30 30 30 30 29 29 28 27 27 28 29 30 30 30 30 29 29 29 29 29 29 29 29 28 29
14 14 15 16 17 18 18 19 19 19 20 21 22 23 23 23 23 23 22 21 21 20 19 19 18 18 21 25 26 27 28 29 29 29 29 29 29 29 29 28 28 27 28 28 29 29 29 28 29 29 30 29 29 29 26 23 23 26 27 25 26 27 27 28 30 30 30 29 28 29 29 28 29 29 29 30 30 30 29 29 29 29 29 29 29 29 28 28
14 15 15 16 17 18 19 19 19 19 20 21 22 23 23 23 23 23 22 21 19 19 18 18 18 19 22 25 27 27 29 29 29 29 29 29 29 29 29 28 28 28 27 28 28 28 28 28 29 28 28 28 29 28 23 22 23 24 25 25 25 27 27 27 29 31 30 30 29 28 29 29 29 29 29 30 30 30 30 29 29 29 29 29 29 29 28 28
14 15 15 16 17 18 19 19 19 19 20 22 22 23 23 22 22 23 22 21 20 20 21 20 20 22 24 25 27 28 29 29 29 29 29 29 29 29 29 29 29 28 27 27 27 27 28 28 27 26 26 27 28 27 25 26 27 26 26 26 25 25 27 29 31 32 30 30 30 29 29 29 29 29 29 30 30 30 29 29 29 29 29 29 29 29 28 28
14 15 15 16 17 18 19 19 19 19 20 22 22 22 23 22 22 22 22 21 21 22 23 22 22 23 24 25 28 28 29 29 29 29 29 29 29 29 29 29 28 28 27 26 26 27 28 26 25 25 26 27 28 28 28 28 29 28 28 27 26 25 26 30 32 32 32 29 29 31 30 29 29 29 29 30 30 30 29 29 29 29 29 29 29 29 28 28
14 14 15 15 17 18 19 19 19 19 20 21 21 21 21 22 21 21 22 22 22 22 23 23 23 23 24 26 28 29 28 28 28 29 29 29 29 28 28 28 27 26 26 27 26 27 27 25 25 26 27 27 28 29 29 29 29 29 27 26 26 26 26 30 32 32 33 30 29 31 30 29 29 29 29 30 30 30 29 29 29 29 29 29 29 29 28 29
14 14 14 15 16 18 19 19 19 20 21 21 20 20 20 22 23 22 22 22 22 23 23 23 24 24 25 27 28 29 28 27 28 28 29 29 28 28 27 27 27 26 27 27 26 26 25 24 25 27 27 28 28 29 29 29 29 28 27 26 24 26 28 29 32 33 34 31 29 31 29 28 30 30 29 30 30 30 30 30 29 29 29 29 29 29 29 29
13 13 14 14 15 17 19 19 19 20 20 20 19 20 21 23 23 23 23 21 21 23 23 24 24 25 26 27 28 28 27 27 27 28 29 28 27 28 27 27 27 26 26 27 26 24 23 24 27 28 28 28 28 29 29 28 28 28 27 25 24 27 27 26 30 33 34 33 31 31 29 29 30 30 30 30 30 30 30 30 29 29 29 29 29 29 29 29
13 13 13 14 15 17 19 19 20 20 20 21 20 21 22 23 23 23 22 21 21 22 23 24 25 26 27 28 28 28 27 27 27 28 29 28 28 28 27 27 27 26 26 27 26 25 24 26 28 28 28 28 28 28 29 27 26 27 28 26 25 28 28 27 30 32 33 33 33 30 26 26 29 29 29 30 30 30 30 30 29 29 29 29 29 30 29 29
13 13 13 14 14 17 19 19 19 19 20 21 22 22 22 22 23 23 21 21 21 22 24 25 26 26 27 27 28 28 27 27 28 28 29 29 28 28 27 27 27 26 26 27 26 25 26 28 29 28 28 28 28 28 29 27 25 26 28 29 29 29 30 30 31 31 28 27 31 30 22 22 27 28 29 30 30 30 30 30 29 28 29 29 29 29 29 29
13 14 14 13 14 16 19 19 18 18 19 21 21 21 22 22 22 22 21 20 20 23 25 25 25 26 27 26 27 28 26 27 28 29 29 29 29 28 27 27 27 27 27 28 27 26 27 29 29 28 28 28 28 27 28 29 25 24 28 31 31 31 30 30 30 28 24 24 30 31 24 22 25 27 29 30 29 29 29 29 29 28 29 28 29 29 29 29
13 14 14 14 14 14 15 17 17 17 19 21 21 21 22 22 22 22 21 19 20 24 25 24 25 26 26 26 27 27 25 26 28 28 29 29 28 28 27 27 27 27 28 28 25 26 28 29 28 29 28 28 27 27 29 30 26 24 30 32 31 32 31 30 30 27 26 27 29 31 28 23 22 25 30 30 29 29 29 29 29 28 28 29 29 29 29 29
14 15 14 14 15 14 13 15 15 16 19 21 21 21 21 22 22 21 20 19 22 25 25 24 25 26 26 26 27 27 26 26 27 27 29 29 28 28 26 27 27 26 28 26 23 25 29 28 28 29 28 27 27 28 30 30 28 28 32 32 31 32 32 32 30 27 27 27 24 26 28 24 21 25 30 30 28 28 29 29 29 29 28 29 29 29 29 29
15 15 15 14 15 15 14 14 14 17 20 21 21 21 21 22 21 21 20 20 23 25 25 25 25 25 26 26 26 27 27 27 27 27 28 28 28 28 27 27 27 26 27 27 25 26 28 29 29 29 28 28 29 30 30 30 30 31 32 32 32 32 32 32 30 27 26 24 22 24 26 24 22 24 27 28 27 28 29 29 29 29 28 29 29 29 29 29
15 16 15 14 15 15 14 14 17 20 21 21 21 21 21 21 21 20 19 21 24 24 24 24 25 26 26 26 26 27 27 27 28 28 28 28 28 28 28 28 27 27 27 27 27 27 28 29 30 30 29 30 31 31 31 31 31 32 32 31 30 31 31 30 29 27 24 23 23 24 26 25 23 23 25 27 28 29 30 30 29 29 29 29 29 29 29 29
16 17 15 14 15 14 14 16 19 21 21 20 20 21 21 21 20 20 20 23 24 24 24 25 25 26 26 25 26 26 26 27 27 27 27 27 27 26 27 26 26 26 25 25 27 27 28 28 29 30 31 31 31 31 31 32 32 32 32 30 27 26 27 26 25 25 23 22 23 25 27 25 22 23 27 29 30 31 31 30 30 29 29 29 29 29 29 29
16 17 17 16 16 16 16 18 20 20 20 20 20 21 21 20 20 20 21 23 23 23 25 25 25 26 26 26 26 26 26 27 27 27 27 27 26 25 24 24 24 23 22 23 24 25 27 28 28 30 31 31 30 30 30 31 32 31 30 27 23 22 23 22 22 23 22 22 24 26 26 24 23 26 29 30 31 31 31 31 30 30 29 29 29 29 29 29
17 18 18 18 18 18 19 20 20 20 20 20 20 20 20 20 20 20 21 22 22 23 25 25 25 26 26 26 25 26 26 26 26 26 26 26 25 24 23 23 23 23 22 22 22 22 24 27 27 29 30 29 28 27 26 28 30 30 27 25 22 22 22 21 22 22 22 22 24 27 26 23 23 28 31 31 31 32 32 32 31 30 30 29 29 29 29 29
18 18 19 19 19 20 20 20 20 20 19 19 19 20 20 20 20 21 21 21 22 24 25 24 25 26 26 25 25 26 25 25 26 26 25 25 23 22 23 23 23 23 23 22 22 21 21 23 25 26 27 27 27 27 26 28 29 29 30 28 24 22 22 22 22 22 22 22 24 25 25 22 23 29 32 32 32 33 33 32 32 31 30 29 29 29 29 29
19 19 20 20 20 21 21 21 21 19 18 18 20 20 20 19 20 21 21 21 23 24 24 24 24 25 25 25 25 25 25 24 26 25 23 22 22 22 22 22 22 23 22 22 21 21 20 21 24 25 26 27 26 26 27 29 28 28 31 28 24 25 24 22 22 23 22 22 23 23 24 25 28 32 34 33 32 33 33 33 32 31 30 30 29 29 29 29
20 20 21 20 21 22 22 21 21 19 18 19 20 20 20 20 20 21 21 22 23 23 23 23 23 23 22 24 24 25 25 25 25 24 22 22 21 21 22 22 22 22 22 21 21 21 20 21 24 26 27 27 25 25 27 26 26 27 27 25 27 30 28 23 22 23 22 22 22 23 23 26 29 31 34 35 34 33 33 33 32 31 30 29 29 29 29 29
20 19 19 20 21 22 22 22 21 19 19 19 19 20 21 21 22 22 22 22 23 23 22 21 22 22 21 22 23 23 25 24 25 24 22 22 21 20 21 22 22 22 22 22 22 21 21 21 23 25 26 25 25 26 27 27 27 26 25 26 29 30 29 25 22 22 22 21 22 23 23 24 24 26 33 35 35 34 33 32 32 31 30 29 29 29 29 29
17 17 18 21 22 23 23 22 21 20 20 20 20 21 22 22 22 22 22 22 23 23 22 20 21 22 21 20 21 22 24 23 23 23 21 21 20 20 21 21 22 22 22 22 21 21 21 21 23 24 23 24 26 26 26 26 27 26 25 28 28 25 24 24 22 22 22 21 22 22 23 23 23 25 30 33 34 34 32 32 32 31 30 29 29 29 29 29
15 17 20 22 23 23 23 22 22 21 20 20 20 21 22 22 22 22 22 22 22 22 22 21 21 22 21 21 20 22 23 22 22 22 21 20 19 20 21 21 22 22 21 21 20 20 21 20 21 23 22 23 25 24 22 22 24 26 26 27 26 24 23 23 23 23 22 21 22 22 22 23 24 27 29 30 31 31 30 30 31 31 30 30 30 30 29 29
15 18 21 23 23 23 23 23 22 21 20 20 21 21 22 22 21 22 22 22 22 22 22 21 21 21 21 21 20 21 22 21 21 21 20 20 19 19 20 20 21 21 21 21 19 19 21 20 20 21 22 23 23 22 22 22 23 24 23 23 23 24 24 24 24 24 22 22 22 22 22 22 25 29 29 29 29 29 29 29 31 31 31 30 30 30 30 30
14 18 21 23 24 23 23 22 21 21 20 21 21 21 22 21 21 21 22 22 22 22 22 21 20 20 20 20 20 20 21 21 21 20 19 19 19 19 19 20 20 20 20 20 19 19 19 19 19 19 20 21 21 22 23 23 24 23 22 22 22 22 23 22 22 23 23 22 22 22 22 22 25 28 29 29 29 29 29 28 29 31 31 30 30 30 30 30
15 19 22 23 23 23 22 21 20 21 21 21 21 21 21 21 21 21 21 21 21 22 22 21 21 20 20 20 20 20 20 20 19 19 18 18 18 18 19 20 20 20 19 18 18 19 19 19 18 18 19 20 20 22 23 23 24 24 22 23 23 22 21 20 21 22 22 22 22 22 22 23 25 28 28 29 29 28 29 28 29 30 31 31 31 31 31 31
15 18 21 23 23 23 22 20 20 21 21 21 21 21 21 21 21 20 20 21 21 21 21 20 20 20 20 20 20 19 19 19 18 18 18 18 18 19 19 20 20 20 19 18 18 19 19 18 18 18 19 20 21 22 22 22 22 22 21 22 22 22 22 21 21 22 21 21 21 21 21 23 25 27 28 28 29 28 28 28 28 28 30 31 31 31 31 31
13 14 19 22 23 23 22 20 20 20 20 21 21 20 21 21 20 20 20 20 20 21 20 20 20 20 19 20 19 18 19 18 18 18 19 18 18 19 19 20 20 20 19 19 19 19 19 18 18 18 19 20 21 22 21 20 20 20 20 22 22 22 22 22 22 22 21 21 20 21 21 22 24 26 27 28 28 28 28 28 27 27 27 29 31 32 31 31
14 15 18 21 22 22 21 20 20 19 19 20 20 20 20 20 20 20 20 20 20 20 19 19 19 19 19 19 19 18 18 18 18 18 18 18 18 19 19 19 20 20 20 20 20 20 19 17 17 17 17 18 19 19 18 18 18 19 20 21 22 22 22 22 21 21 21 20 20 21 21 21 24 26 27 27 27 27 26 26 26 27 26 27 29 31 31 30
17 18 19 20 21 20 20 20 20 19 19 19 19 20 20 19 20 21 20 19 19 20 19 19 19 19 18 18 18 17 18 18 18 17 17 17 18 18 19 19 19 20 20 20 20 19 18 17 18 17 17 17 17 17 17 18 18 19 20 20 21 21 21 21 21 20 20 20 20 21 21 21 23 25 26 27 26 26 25 23 24 26 25 25 27 28 28 28
17 17 17 18 19 19 19 19 19 18 19 19 18 18 18 18 18 20 20 20 19 19 19 18 18 18 17 18 17 17 17 17 17 17 17 17 17 18 19 19 19 19 20 19 19 19 17 17 17 17 17 17 17 17 18 19 19 19 19 20 20 21 21 21 20 20 21 20 20 21 21 21 22 24 26 26 26 25 24 22 22 23 24 24 25 25 25 25
17 17 17 17 17 18 18 18 18 18 18 18 18 17 17 17 17 17 19 19 19 19 18 18 18 18 18 18 17 17 17 17 17 17 17 17 17 17 18 18 18 19 19 19 19 18 17 16 17 17 17 17 17 18 18 19 19 19 19 20 20 20 21 20 20 21 21 20 20 22 22 21 23 25 25 25 25 24 23 22 21 21 22 23 23 23 23 23
16 16 16 16 17 18 18 18 18 17 17 18 17 17 16 16 16 17 18 18 18 18 18 17 17 18 18 18 18 16 16 16 16 17 17 17 17 17 17 18 18 19 19 18 18 18 17 16 17 17 16 16 17 17 18 18 18 18 18 19 20 20 21 21 21 21 22 21 21 22 22 22 24 25 24 24 24 23 23 22 21 20 21 22 22 22 22 22
14 15 14 15 17 18 18 18 17 17 17 17 17 17 16 16 16 17 17 18 17 18 18 17 17 18 18 18 18 16 16 17 16 16 17 17 17 17 17 17 18 18 18 18 18 18 17 16 17 17 15 15 16 17 17 17 17 17 17 18 19 20 21 21 21 22 22 21 22 22 21 22 24 24 24 23 23 22 22 22 21 20 20 20 21 21 21 21
14 14 14 15 17 18 18 17 17 17 17 17 17 17 16 16 16 16 17 18 18 18 18 18 18 18 18 18 17 17 17 18 17 17 18 17 17 17 17 18 18 17 17 18 17 17 17 16 17 16 15 15 16 16 16 17 17 16 17 18 19 20 20 21 21 22 21 21 21 21 20 21 23 24 23 22 22 22 21 21 21 20 19 19 20 20 20 20
13 14 14 15 17 18 17 17 17 17 16 17 17 17 16 16 17 17 17 18 18 18 19 18 18 18 17 17 17 18 18 18 18 18 18 18 18 18 18 18 18 17 17 17 17 17 17 16 16 16 14 14 15 16 16 16 15 16 17 18 19 20 20 20 20 21 21 20 20 20 20 20 22 23 23 22 21 21 20 20 21 20 20 19 19 19 19 19
Height
814 812 810 809 807 805 803 801 800 798 797 796 794 793 791 790 789 787 786 784 783 781 781 781 780 780 779 778 777 776 774 773 772 773 771 763 762 765 765 767 768 769 770 772 773 775 776 777 777 778 781 782 784 782 781 778 778 788 799 807 809 807 801 790 788 789 792 798 798 795 792 796 800 797 792 792 796 797 800 799 798 799 794 793 797 799 801 803
814 812 810 808 807 805 803 801 799 798 796 795 793 792 791 789 788 786 784 783 782 780 779 779 779 779 777 777 776 775 773 772 771 770 764 759 760 763 764 765 767 769 769 770 772 772 775 777 776 778 781 784 783 780 782 777 777 789 798 805 804 799 789 779 780 783 787 794 794 793 792 794 799 798 794 797 802 800 804 804 801 802 798 797 798 800 803 803
813 811 809 808 806 804 803 801 799 797 795 794 793 791 790 788 787 785 783 781 780 779 778 777 777 777 776 776 775 774 773 771 770 765 758 757 759 761 763 765 766 767 768 769 771 772 774 775 775 778 782 786 783 780 783 779 778 785 793 803 797 786 782 775 776 779 781 786 790 792 790 792 796 794 794 798 803 803 804 803 802 803 800 800 799 800 802 803
813 811 809 807 805 803 802 800 798 796 795 793 792 790 789 787 786 784 782 780 779 778 777 776 776 776 776 775 774 774 771 771 767 760 757 757 758 760 762 763 765 767 768 769 771 772 773 774 776 777 783 788 783 781 784 779 778 782 787 794 785 777 782 777 774 776 776 781 788 792 791 794 793 791 794 797 804 807 803 797 795 796 796 797 798 798 800 802
812 810 808 806 804 803 801 799 797 795 794 792 791 789 788 786 785 783 781 780 778 777 776 776 775 775 775 774 774 773 772 775 767 756 757 757 758 760 761 762 765 767 767 769 770 772 774 775 776 778 783 788 785 784 783 773 772 780 780 778 775 774 780 776 772 774 774 778 785 791 793 793 790 790 793 796 802 802 794 789 787 788 789 790 793 796 798 800
811 809 807 805 803 802 800 798 796 794 793 790 789 788 787 786 784 782 780 779 778 777 776 775 775 774 774 774 774 772 773 774 763 755 758 757 758 759 760 762 764 766 767 768 769 771 774 774 779 783 784 785 786 785 779 770 769 781 777 770 770 769 773 773 771 773 774 778 785 788 788 788 793 794 791 793 797 793 788 786 783 784 787 788 790 793 796 799
810 808 806 804 802 801 798 797 795 793 791 789 788 786 785 784 783 782 779 778 777 776 776 775 775 774 774 774 773 773 774 769 757 755 757 756 758 758 760 762 763 766 766 767 768 771 773 776 780 781 784 785 783 780 775 769 768 779 778 769 766 763 767 770 769 772 773 778 780 781 784 789 796 796 790 792 793 791 788 785 783 782 785 789 791 794 796 798
809 807 805 803 801 799 797 796 794 792 790 788 786 785 784 782 781 780 779 778 776 776 776 775 775 774 774 774 773 774 773 763 753 755 755 755 757 757 760 760 762 764 764 766 766 769 772 776 779 778 784 783 777 775 771 772 772 774 774 767 763 763 766 766 767 772 773 776 777 779 785 788 789 790 790 790 788 787 784 784 783 782 786 789 791 794 796 798
808 806 804 802 800 797 796 794 792 790 788 786 785 783 782 781 780 779 778 777 776 776 775 774 774 773 774 773 773 773 765 755 752 754 754 755 756 756 758 758 761 762 763 765 764 768 772 774 775 773 780 777 771 772 769 777 778 768 767 763 762 766 767 766 768 771 773 774 775 781 786 786 783 786 791 786 781 782 782 784 782 783 788 790 792 793 794 797
807 805 803 801 798 796 794 792 790 788 786 785 783 782 780 779 778 777 777 776 775 774 774 774 773 772 773 772 774 771 758 751 753 753 753 754 755 755 757 757 759 760 762 763 764 767 766 768 768 765 773 772 769 770 768 774 772 760 761 759 759 765 764 765 770 771 773 773 774 780 786 785 781 788 794 784 776 779 784 786 783 786 790 790 791 792 794 797
806 804 802 799 797 794 792 790 788 786 784 782 781 780 778 777 777 776 775 774 774 773 773 772 771 772 772 771 773 767 753 751 753 752 753 754 754 754 755 756 757 759 760 762 763 762 761 762 762 765 773 770 767 768 765 764 762 758 759 759 759 762 764 767 771 772 773 776 774 776 785 786 784 791 791 780 776 778 784 788 788 791 791 789 791 792 793 795
805 803 800 798 795 792 790 788 786 784 782 780 779 777 776 776 775 774 773 773 772 772 772 771 771 771 771 772 770 759 750 751 752 751 753 752 753 753 753 755 756 757 758 760 761 759 760 761 762 771 772 767 771 773 764 756 757 758 758 765 765 765 771 770 770 771 771 777 772 773 791 795 791 791 782 775 776 778 785 790 793 796 792 790 791 791 793 794
804 802 799 797 794 791 789 786 784 782 780 777 776 774 774 773 773 773 771 771 771 771 771 771 771 770 772 770 760 751 749 751 752 751 752 752 752 753 753 754 754 756 757 758 758 757 760 761 763 768 765 768 775 768 759 754 757 760 759 766 771 777 782 771 767 770 770 774 766 770 797 803 792 785 776 772 775 780 789 793 798 799 791 789 790 791 793 793
804 801 798 796 793 791 788 785 783 780 778 776 773 772 771 770 771 770 769 770 769 770 770 770 770 770 772 764 750 748 750 749 751 751 751 751 752 753 753 753 754 755 756 756 757 757 760 760 762 765 763 766 767 760 760 761 761 765 766 767 772 784 786 770 766 771 774 773 762 770 796 800 789 781 774 771 771 779 789 793 798 797 788 788 789 791 793 792
803 800 797 795 792 789 787 784 782 779 777 774 771 770 768 768 768 766 767 768 768 769 769 769 770 769 771 762 748 748 749 748 750 749 750 750 751 752 752 752 754 754 755 756 756 758 759 760 763 768 765 759 760 767 773 772 768 769 777 781 777 780 781 770 766 767 773 773 766 775 794 794 786 778 770 768 770 776 784 788 791 790 786 788 788 789 793 792
802 799 797 794 791 788 786 783 781 778 775 772 770 768 766 766 764 763 765 765 766 768 767 769 768 769 772 762 749 747 748 748 748 747 749 749 750 751 750 751 752 753 755 755 756 757 757 760 762 763 763 763 768 776 781 783 781 775 781 789 782 779 780 774 767 761 764 772 774 777 788 790 782 774 767 765 769 774 780 783 783 784 784 785 787 788 791 792
801 798 796 793 790 787 785 782 780 777 774 771 769 766 764 763 761 761 763 764 766 766 767 768 768 769 766 755 750 751 747 746 746 746 747 748 749 749 750 752 752 753 754 755 757 757 758 762 763 763 764 768 772 777 790 800 797 786 782 785 781 778 779 775 770 762 760 770 777 777 782 783 776 770 768 766 766 772 778 781 781 782 783 784 785 787 790 791
800 798 795 792 789 786 784 782 779 776 773 771 768 766 763 762 760 761 762 764 765 766 768 768 768 773 767 754 752 751 745 745 745 745 746 747 747 749 750 751 751 753 757 760 760 760 763 764 767 772 773 774 775 781 797 802 794 790 786 786 784 779 778 776 771 764 763 770 775 780 782 778 772 770 769 766 765 770 774 776 779 780 781 783 784 786 789 790
800 797 794 791 789 786 783 781 779 777 773 770 768 765 762 761 761 761 762 764 766 768 770 768 767 770 767 755 749 747 744 744 745 744 745 745 746 748 748 750 751 755 764 770 768 764 767 770 774 781 783 780 778 781 790 788 782 784 783 784 786 782 777 772 765 760 761 772 776 777 780 777 774 772 769 766 764 769 772 773 777 779 779 782 783 784 787 788
800 797 794 791 788 785 782 780 779 777 773 771 768 765 765 766 768 767 763 762 763 764 763 763 762 762 759 752 746 745 745 744 744 744 744 745 745 747 749 750 754 760 767 774 774 766 767 780 785 784 783 780 776 776 778 777 776 779 782 783 783 783 778 766 761 755 754 770 774 768 772 774 772 770 766 764 764 768 772 773 775 777 778 779 781 783 784 786
799 797 794 791 788 785 782 779 778 777 774 772 770 770 771 772 776 775 768 762 758 757 758 757 756 758 754 750 745 744 746 747 745 743 744 744 744 751 754 754 762 770 769 770 771 766 770 785 786 778 776 774 772 772 773 774 775 778 783 785 784 782 777 762 757 753 749 764 770 763 769 773 768 766 763 761 765 768 768 771 773 773 775 776 777 780 782 783
798 796 793 790 787 784 781 778 777 776 775 773 772 773 773 772 773 772 769 768 759 752 755 753 752 754 748 746 744 742 748 753 750 745 743 744 746 755 759 759 768 773 768 768 773 776 782 787 780 771 770 769 770 769 771 774 775 779 782 786 787 779 772 762 753 749 748 759 767 763 769 771 763 761 761 759 761 763 762 764 767 769 772 774 775 777 779 781
798 795 792 790 786 783 780 778 777 776 775 773 773 773 772 771 770 768 769 774 765 752 752 752 752 751 747 745 742 742 751 755 755 749 741 745 750 753 759 763 768 770 769 771 777 786 791 784 770 765 765 768 771 769 772 775 776 779 781 786 786 775 774 772 757 750 747 751 759 761 767 770 766 765 763 759 757 758 759 760 762 764 766 768 769 771 774 778
797 794 792 789 785 782 779 778 776 775 775 773 773 773 772 771 769 768 768 773 771 756 748 747 747 748 747 744 741 745 752 752 752 749 740 745 751 751 757 762 766 770 771 770 773 781 784 771 760 763 765 767 773 771 772 778 780 778 776 780 780 770 770 770 759 754 749 746 748 759 779 782 773 774 770 761 760 760 760 762 765 765 763 765 765 767 769 772
795 793 791 788 785 781 778 777 775 775 774 772 773 772 771 771 768 768 769 776 777 760 747 745 745 745 743 742 743 744 750 750 747 745 739 742 748 753 757 757 763 771 770 767 772 778 775 761 756 765 768 767 773 773 771 775 781 779 771 767 767 764 762 760 758 759 763 764 752 760 797 801 778 775 774 766 766 766 763 764 767 767 765 766 767 767 767 767
794 792 790 788 785 780 777 775 775 775 773 772 773 771 770 770 768 768 772 784 782 762 751 751 748 747 743 744 743 742 754 756 742 739 739 741 743 748 758 758 759 766 764 762 767 770 765 756 754 763 766 767 772 773 767 766 779 782 765 754 755 758 760 760 760 764 772 776 759 755 789 805 787 779 774 767 768 769 766 766 766 766 765 765 765 765 765 766
793 791 788 787 784 782 779 776 777 776 774 773 771 771 770 768 768 767 774 794 788 759 753 755 749 747 745 744 741 748 766 760 743 740 739 741 741 744 758 762 761 762 757 760 771 766 757 756 757 760 763 768 772 772 763 759 775 776 754 747 753 754 758 758 759 765 765 764 762 756 768 792 797 783 768 767 772 773 770 768 766 764 763 762 762 761 761 762
792 789 787 785 784 784 781 779 778 776 774 774 770 770 770 768 769 768 782 802 785 754 753 754 747 745 743 742 742 750 758 752 753 751 736 738 743 746 759 762 761 763 755 764 780 767 754 758 760 760 765 769 768 764 754 753 767 763 745 744 750 750 753 753 756 763 760 763 774 767 760 786 798 777 764 769 776 778 772 766 763 761 759 758 758 758 757 757
790 788 786 783 782 782 781 780 778 775 774 772 770 771 769 768 769 772 790 798 773 752 754 752 748 747 744 746 748 749 749 749 756 751 737 741 743 745 757 756 756 762 756 761 773 763 754 754 752 755 762 763 757 751 746 751 758 749 741 744 747 748 750 752 758 760 761 771 779 770 761 778 790 776 771 777 778 776 767 759 757 755 755 755 755 755 755 755
787 786 784 782 780 780 780 779 776 774 773 771 771 770 767 769 773 785 800 791 767 758 756 753 754 752 750 754 755 752 752 752 750 746 744 747 745 745 750 748 751 759 759 759 761 758 752 746 744 748 752 749 745 744 741 744 746 741 743 748 751 755 753 755 759 759 773 783 775 766 759 767 783 780 773 771 765 760 755 754 755 753 754 754 752 753 753 753
785 783 783 780 778 779 779 777 774 773 772 771 771 768 768 773 780 796 798 775 764 766 759 757 757 752 754 760 759 755 754 753 750 751 754 753 753 755 756 757 760 763 767 766 760 755 751 751 748 743 740 740 741 743 740 737 738 742 749 754 761 767 762 766 768 768 789 794 772 763 757 763 781 778 764 756 745 741 745 750 752 751 752 751 749 750 750 750
783 781 780 779 777 777 777 775 773 773 772 772 770 768 773 782 790 797 787 768 771 773 761 759 758 753 755 757 758 757 755 756 754 755 759 759 764 768 770 774 774 776 782 777 770 763 755 754 752 743 736 739 746 750 747 741 740 747 754 760 774 786 785 790 790 786 795 788 767 761 761 768 774 761 752 749 740 737 739 740 743 744 746 746 746 746 746 748
781 778 777 777 776 775 774 773 772 773 773 771 771 771 777 792 797 791 782 778 778 769 758 758 756 754 756 758 760 757 756 760 757 757 759 761 770 775 774 774 772 778 784 780 780 779 768 757 753 750 745 743 749 757 760 754 748 753 758 764 779 794 803 809 804 798 796 780 761 756 763 774 770 749 741 741 735 732 731 731 734 735 738 740 739 741 743 745
780 777 777 776 774 774 772 772 772 773 773 771 774 777 783 797 795 783 782 782 773 762 758 760 758 756 757 761 763 758 761 765 758 759 764 767 778 783 780 777 772 775 778 780 787 790 788 778 764 761 759 752 752 757 759 754 750 752 751 756 770 781 795 805 802 799 796 782 766 759 767 777 768 746 732 729 726 724 724 724 726 728 731 733 736 740 743 744
779 777 776 774 773 772 771 772 772 773 775 774 777 784 793 801 794 785 786 780 770 767 764 760 760 763 763 763 762 758 763 767 761 764 775 781 789 791 788 786 780 777 780 787 792 792 797 789 768 762 760 754 757 754 749 752 758 754 747 755 767 766 772 785 787 783 783 788 781 769 768 764 749 733 720 721 724 721 720 719 721 726 728 732 738 741 741 742
778 775 774 773 773 771 770 771 772 774 775 776 783 791 795 797 791 786 783 776 774 773 771 769 768 773 774 768 766 763 761 763 764 771 780 785 792 794 792 790 784 781 783 791 796 797 800 788 766 760 756 753 760 755 749 757 763 756 754 761 758 748 756 776 783 774 777 797 791 773 768 756 745 737 720 716 724 722 722 720 719 723 724 730 736 735 737 738
778 775 774 773 772 771 771 771 772 774 775 780 789 792 789 787 783 780 777 774 774 772 776 784 781 781 786 781 777 772 765 766 768 775 783 787 794 799 796 791 786 784 783 786 792 795 798 790 771 764 763 758 756 752 748 752 757 763 768 761 749 747 754 769 786 786 790 805 792 773 774 768 764 756 731 720 724 722 723 721 716 719 722 727 729 728 730 731
779 777 775 772 772 771 770 772 773 774 777 783 790 788 784 784 780 777 775 774 774 772 780 792 787 782 788 791 789 779 772 776 776 779 788 793 801 803 799 796 789 785 783 782 790 792 793 794 779 766 772 768 755 755 762 757 755 766 768 755 754 770 774 774 788 795 800 808 795 778 774 770 768 760 741 733 731 725 727 725 719 720 721 722 722 722 724 725
781 780 777 773 771 771 771 773 773 775 781 788 792 789 784 784 780 777 776 775 775 778 784 790 786 784 788 791 793 784 779 784 784 785 793 801 807 804 798 798 793 790 787 785 795 797 792 800 792 773 774 775 765 772 788 783 767 762 763 760 762 771 775 776 779 784 793 804 800 790 782 773 767 758 750 747 741 736 736 730 722 719 717 717 717 718 721 723
783 783 780 772 771 773 771 772 774 779 786 789 790 788 784 784 783 779 777 776 777 780 786 789 788 790 791 791 793 789 786 789 789 793 799 805 811 808 800 799 796 794 791 789 797 799 796 804 803 784 776 780 785 790 795 795 786 779 781 785 783 776 771 773 772 770 780 793 799 798 791 780 769 758 753 751 744 739 735 728 720 713 711 713 712 712 716 719
786 787 782 772 773 774 772 775 780 783 787 787 786 786 785 786 786 782 780 779 780 781 784 788 791 793 795 794 796 794 792 795 795 800 809 811 815 815 807 802 800 798 797 798 803 805 805 809 811 804 794 794 798 792 785 787 787 789 795 797 798 793 787 790 787 773 770 778 785 790 789 783 772 758 751 749 744 736 729 724 716 707 705 708 707 708 710 712
790 789 781 774 775 774 774 781 784 781 786 789 788 787 786 786 788 788 785 783 784 784 784 787 790 793 795 795 798 797 796 802 804 807 816 818 817 817 811 804 801 800 802 808 809 805 805 811 815 815 805 798 795 787 782 783 781 785 794 795 796 797 799 809 807 791 784 779 774 778 784 779 768 756 749 747 742 735 729 725 718 708 703 703 702 703 705 707
795 791 780 774 776 773 777 787 788 785 788 788 787 788 788 789 791 792 790 788 789 789 790 792 792 794 797 796 798 801 801 808 813 812 816 819 817 814 810 805 803 802 804 811 812 804 805 816 821 815 801 788 785 783 781 782 785 795 802 797 798 800 801 805 802 796 798 797 791 791 787 775 764 754 749 746 742 736 731 728 724 716 708 704 702 701 702 704
799 795 784 777 775 773 781 794 796 795 794 789 790 792 791 791 793 795 795 794 794 793 796 799 797 797 800 798 800 805 806 811 817 815 814 818 818 813 808 805 805 805 806 810 811 807 813 824 827 825 817 800 791 793 795 795 800 811 812 803 802 801 797 796 794 793 799 804 805 804 793 781 770 758 751 748 744 740 735 731 728 724 718 711 706 704 704 705
798 796 788 782 778 778 787 793 795 798 798 794 796 797 796 795 795 795 797 798 796 796 799 803 801 800 802 801 804 808 807 811 818 817 816 819 818 813 810 807 806 806 806 806 805 806 817 826 827 833 839 830 821 822 826 823 818 817 814 808 806 805 802 801 802 804 807 806 806 805 801 791 776 761 755 752 749 747 743 738 734 730 726 718 711 711 714 714
800 800 797 790 785 786 791 790 790 797 799 799 801 801 801 802 799 794 796 800 800 798 801 804 802 802 806 807 811 814 812 813 817 819 820 822 820 816 812 809 808 808 807 806 805 808 817 825 826 832 838 838 835 833 830 827 824 821 818 813 810 808 805 805 809 812 810 809 806 800 800 797 782 769 763 757 754 754 751 747 745 741 737 730 724 721 721 722
803 806 807 804 799 797 798 795 795 800 800 801 807 808 807 809 806 801 799 801 801 801 804 806 805 808 813 813 816 819 817 816 817 819 821 823 821 818 813 811 812 811 809 810 809 812 822 829 827 828 831 830 829 827 821 819 821 820 818 817 813 809 806 809 813 809 806 812 809 794 793 799 789 775 767 761 759 759 757 755 755 753 749 744 738 732 729 730
805 808 808 807 809 809 808 804 803 804 803 804 810 813 814 815 815 813 808 804 803 804 808 812 811 811 814 814 817 822 821 820 822 820 820 820 819 818 815 814 814 812 811 814 813 815 827 833 828 828 831 828 825 823 819 818 816 814 815 816 813 810 810 810 810 804 802 810 807 792 791 797 787 774 769 765 764 764 763 761 759 759 758 753 747 743 740 740
809 811 809 806 809 812 810 807 806 808 809 809 813 816 818 820 821 818 813 810 810 809 811 818 817 814 814 813 816 823 825 826 828 825 822 821 820 820 821 820 818 814 814 818 818 819 827 832 827 828 833 831 827 824 819 818 818 814 814 814 811 809 808 806 804 799 797 800 797 790 793 792 782 775 771 768 767 766 764 763 763 764 764 760 754 752 750 748
815 817 815 812 810 809 809 809 810 813 813 814 817 819 820 823 823 820 815 815 818 815 813 819 820 816 816 815 818 825 826 826 829 828 824 825 825 825 827 825 822 820 819 821 822 822 828 833 828 828 835 835 829 825 822 822 822 818 814 813 811 808 805 802 800 795 794 795 791 789 794 790 778 773 771 769 768 766 764 765 766 767 767 763 759 758 756 754
818 818 818 817 814 811 812 813 813 817 819 819 820 821 822 823 823 821 818 815 817 818 816 818 820 818 818 819 821 825 824 821 824 824 822 825 826 825 825 823 822 824 824 824 825 824 829 834 830 831 840 839 831 829 828 824 823 820 815 811 809 807 805 802 798 795 795 796 792 792 797 792 779 772 772 772 770 769 770 770 768 769 769 766 764 762 761 759
818 817 816 817 817 815 815 816 816 820 823 822 820 821 823 823 820 820 822 817 814 814 814 815 818 819 821 824 823 822 819 818 820 820 819 820 820 819 821 820 820 824 826 826 827 826 828 833 833 836 842 840 833 832 830 829 831 826 814 807 805 804 805 804 801 797 795 796 797 800 800 792 780 773 773 775 775 774 774 773 771 770 770 770 769 768 766 765
Wind_Speed
25 25 26 26 26 25 24 22 21 20 19 18 18 19 20 22 23 24 23 20 18 18 16 13 11 12 13 12 11 11 14 14 10 5 8 9 12 11 11 15 12 15 16 10 10 9 7 8 8 10 7 4 4 3 7 8 4 2 1 2 2 2 3 3 2 3 6 6 5 5 4 4 4 3 2 3 3 4 4 4 2 3 8 14 21 31 33 34
25 25 26 26 27 26 25 24 22 21 20 19 18 19 21 22 24 25 24 19 18 18 16 13 10 10 12 11 9 10 14 13 9 9 12 7 10 17 13 11 12 16 17 12 14 14 8 6 8 8 5 2 3 4 5 5 5 3 2 2 3 3 4 2 4 6 7 8 7 6 5 5 4 3 2 2 5 6 4 2 2 8 14 18 26 32 32 33
25 26 26 27 27 26 26 25 23 22 21 20 19 20 21 22 24 25 23 19 18 18 16 12 9 9 10 9 7 9 12 9 5 6 7 6 15 21 15 10 11 16 18 14 15 16 11 10 11 7 4 3 4 4 5 4 5 5 3 2 4 5 3 2 7 7 10 11 9 6 4 5 5 4 1 3 7 6 6 5 6 13 19 20 24 28 32 31
25 26 27 27 28 27 27 26 25 23 22 21 20 21 21 22 23 24 22 19 18 18 15 11 8 8 7 6 6 8 8 4 2 2 1 7 16 20 18 13 12 13 15 13 13 15 11 8 9 7 4 4 4 5 6 6 5 4 6 6 4 5 4 3 8 10 13 13 10 8 5 3 4 4 3 6 8 6 7 8 10 18 23 22 23 25 29 27
26 26 27 28 29 29 28 27 26 24 23 22 21 21 22 22 22 22 21 19 17 16 14 11 8 5 4 4 5 7 4 3 2 3 3 7 12 16 18 15 14 13 12 11 11 11 9 4 2 5 5 4 4 4 6 9 6 3 8 10 4 5 5 5 9 10 12 13 12 12 8 5 4 4 6 7 7 5 6 9 13 20 22 24 24 24 26 23
26 27 28 29 29 29 29 28 27 25 24 22 22 22 22 22 21 21 20 19 16 14 13 10 7 3 2 3 4 4 1 1 3 4 3 7 10 14 17 15 16 14 12 12 10 7 6 3 1 3 4 4 6 7 6 8 7 5 7 8 8 8 6 7 10 10 11 13 13 12 9 7 5 5 7 9 7 2 1 4 14 19 21 25 25 23 22 20
27 27 28 29 30 30 29 28 27 27 26 23 23 22 22 22 21 20 20 18 14 12 11 9 6 3 3 4 2 1 2 3 6 6 4 6 9 12 15 17 18 16 14 13 10 6 5 5 5 4 4 6 6 8 7 6 7 8 8 6 10 12 8 9 11 10 11 12 11 11 11 9 8 6 7 10 7 2 3 3 14 20 22 25 21 21 20 19
27 27 28 30 30 30 29 29 28 28 27 25 24 23 22 21 20 19 19 17 13 10 9 7 6 4 5 3 1 1 1 5 7 9 6 6 8 11 15 18 20 18 16 16 13 9 5 6 7 4 4 7 5 6 6 5 7 8 10 8 7 8 8 10 9 10 11 9 9 11 11 9 9 6 6 9 6 8 2 3 14 19 21 21 18 20 18 18
28 28 29 30 30 30 30 29 29 28 28 27 25 24 22 21 19 18 18 17 13 9 8 8 5 5 6 2 1 1 2 4 7 10 7 7 7 11 16 18 21 20 16 17 16 10 6 5 8 7 5 8 7 6 5 4 5 6 7 8 5 7 10 11 10 11 10 7 10 11 10 8 7 5 5 8 7 10 4 3 15 19 19 18 16 19 17 17
28 28 29 30 30 31 30 29 29 29 29 28 26 24 23 20 18 17 17 17 13 8 9 9 7 5 4 1 1 1 1 2 8 9 8 8 7 10 17 18 21 23 16 14 15 12 10 9 7 5 5 6 6 6 6 4 5 6 5 6 5 12 13 11 11 11 9 8 11 10 9 8 6 3 3 6 9 10 7 4 10 16 18 18 15 16 16 17
28 29 30 30 30 31 30 30 29 29 29 29 27 24 23 20 18 17 17 16 12 8 8 9 6 2 0 1 2 3 3 4 8 9 8 9 7 7 15 19 20 24 18 11 15 18 17 13 6 2 3 4 4 6 6 4 5 8 6 6 3 13 12 11 11 10 9 7 9 8 7 5 4 2 3 8 11 10 10 8 6 9 15 17 15 15 14 15
29 29 30 29 30 30 30 30 29 29 29 29 28 25 22 19 17 16 17 16 11 7 6 6 4 1 2 1 3 6 4 4 5 7 10 8 3 2 9 17 18 22 20 11 14 23 21 15 8 4 5 4 5 5 5 4 5 7 5 4 1 10 10 12 12 11 10 7 10 9 6 1 4 5 5 10 14 12 12 11 9 9 14 16 13 13 12 15
29 30 30 30 30 30 30 30 30 30 30 30 28 26 22 18 16 16 18 14 8 5 4 4 3 2 3 0 7 7 5 3 1 4 10 6 6 4 8 13 13 17 20 15 16 21 21 17 10 7 8 6 5 5 6 5 4 6 4 3 2 6 7 12 11 12 10 7 15 11 3 4 6 8 6 11 16 16 13 12 11 10 13 15 12 12 13 15
29 30 30 30 30 29 30 30 30 30 30 30 29 25 21 18 17 18 18 12 6 4 3 3 1 3 3 4 9 7 6 5 4 6 9 9 9 8 10 12 12 16 19 18 16 15 16 16 11 7 7 6 4 4 7 5 3 4 4 4 2 4 5 11 11 12 8 7 16 9 2 6 8 10 9 11 15 17 17 16 15 12 14 14 11 13 13 14
30 31 31 30 30 30 30 30 31 31 31 31 28 24 21 19 19 18 14 8 5 4 3 3 3 4 2 6 9 6 4 4 7 9 8 10 10 9 12 15 15 17 17 17 14 11 13 13 9 6 5 5 2 3 5 4 3 2 1 4 2 2 4 9 12 15 10 7 14 7 1 6 8 11 11 13 13 14 18 18 17 15 15 14 11 12 12 13
31 32 31 30 30 30 30 30 31 31 31 31 27 23 21 20 17 12 8 5 4 5 3 1 3 4 1 4 6 5 3 5 7 10 11 11 9 7 11 14 15 18 18 15 12 12 13 10 5 5 4 3 2 1 3 4 4 2 2 3 3 2 3 4 10 16 14 10 12 10 3 3 5 10 11 14 15 14 15 14 16 15 14 15 11 10 11 12
32 32 31 31 30 30 30 31 31 31 31 29 26 24 19 15 10 5 1 1 2 3 3 0 1 2 2 5 6 5 5 6 4 4 10 10 7 5 6 7 9 13 14 12 11 10 8 5 3 3 2 2 1 2 1 3 3 4 1 3 3 3 4 3 6 13 15 14 13 12 6 3 6 12 12 14 16 15 14 13 15 15 13 13 12 11 12 12
32 32 32 32 31 31 30 31 32 31 30 27 25 23 14 10 6 2 5 5 3 1 1 1 1 1 2 5 4 3 3 4 2 2 6 7 6 6 4 4 5 8 7 5 7 6 3 2 1 1 1 3 3 3 3 4 4 3 4 3 3 3 4 6 3 8 15 14 14 13 8 5 9 14 14 14 15 15 15 13 14 14 13 13 12 12 12 13
32 32 32 32 31 31 30 31 32 32 30 25 24 20 10 8 6 5 6 5 4 2 1 2 2 1 2 5 4 3 4 1 1 1 4 5 6 6 3 4 4 7 5 2 3 4 3 1 1 1 2 5 5 4 6 5 5 5 5 3 3 5 5 8 5 7 17 14 12 14 9 7 12 15 15 14 14 14 13 12 12 13 12 13 12 12 13 15
32 32 32 32 32 30 30 31 31 31 28 23 24 18 8 7 4 2 3 1 3 4 5 4 4 3 6 7 5 3 4 3 2 4 6 6 7 4 1 1 3 5 5 4 4 3 4 2 3 5 5 6 6 6 7 6 7 6 5 5 5 7 7 8 6 6 17 14 12 16 11 11 15 15 17 16 15 14 14 14 14 13 13 13 13 13 15 16
33 32 32 32 31 30 29 29 30 28 22 19 20 11 2 3 2 3 5 4 6 7 8 9 8 8 10 13 9 2 1 1 2 4 7 8 8 5 1 2 3 3 4 6 4 1 4 5 5 7 7 7 7 7 7 8 10 8 5 5 7 7 8 10 10 5 13 13 12 15 12 13 17 16 17 17 16 15 15 16 16 15 14 14 15 15 16 14
33 31 33 32 31 31 28 28 28 20 15 17 14 4 3 3 3 2 5 4 8 6 7 10 8 8 12 16 13 3 3 1 4 5 7 6 7 5 2 2 3 3 4 5 3 2 4 5 7 9 7 7 7 7 8 9 10 8 5 5 6 6 7 10 9 3 6 8 9 15 14 13 16 16 17 18 17 15 15 17 16 16 16 15 16 15 15 14
32 32 33 32 32 31 27 28 23 12 14 19 13 7 6 6 7 8 5 2 7 7 5 6 5 6 7 8 7 2 4 1 3 4 6 6 4 4 4 4 5 4 4 6 4 4 3 5 10 11 8 9 9 9 9 7 7 6 5 5 7 8 5 6 4 3 3 4 10 16 10 7 9 11 14 17 15 13 14 16 14 14 16 17 18 16 15 16
32 33 32 32 33 29 27 26 14 9 17 15 10 11 10 10 13 11 4 1 5 6 5 6 5 4 4 2 2 4 3 2 2 4 4 6 3 2 3 4 5 4 4 7 7 6 5 8 10 10 8 9 9 9 8 6 5 6 7 7 7 9 8 7 5 5 7 5 7 12 4 0 6 10 12 11 11 12 13 14 12 12 13 15 16 16 16 17
33 33 32 33 32 29 28 19 8 15 19 8 8 17 16 14 16 11 4 1 3 5 4 4 3 2 1 1 4 4 2 2 4 5 4 5 3 2 2 2 3 4 6 8 8 6 7 10 8 7 9 9 8 8 8 7 5 6 7 10 11 12 12 10 8 5 5 5 3 11 5 3 5 9 11 9 10 11 11 13 13 12 11 12 14 15 15 16
33 32 32 32 30 30 24 7 8 20 15 4 11 19 16 14 17 13 5 3 3 3 2 1 1 1 1 1 3 3 4 3 5 2 3 4 3 3 1 2 0 3 5 5 5 3 6 11 8 8 10 10 9 8 9 8 5 5 6 9 11 10 10 10 7 4 1 1 1 7 7 2 3 7 10 10 12 13 12 13 14 13 12 12 13 14 14 15
32 31 31 31 28 28 16 5 14 18 5 4 14 17 14 13 17 13 4 3 4 1 2 2 2 1 1 1 2 5 2 4 5 2 2 4 3 4 1 2 1 2 2 1 1 3 5 9 9 9 9 9 8 7 9 8 6 5 7 7 7 7 7 7 5 4 4 2 1 1 5 4 3 8 11 11 11 12 12 14 14 14 15 15 15 15 16 16
31 30 30 29 26 20 10 10 15 10 3 9 14 14 15 15 15 7 4 3 2 0 1 1 2 1 2 1 3 3 4 4 0 3 2 5 3 3 1 3 3 3 3 2 1 5 2 2 5 5 5 5 6 9 12 9 6 7 9 8 6 6 6 4 3 4 3 1 3 3 4 4 3 7 9 9 10 12 15 17 18 17 17 17 17 17 17 17
31 30 29 28 24 12 5 10 11 7 8 12 12 14 17 16 10 3 3 3 1 1 1 0 1 2 1 1 2 2 3 1 2 4 1 3 1 2 2 5 4 2 4 2 3 6 3 2 4 3 3 5 6 11 13 9 7 7 9 9 4 3 4 2 1 2 3 0 3 5 3 4 3 4 7 9 10 13 16 17 18 18 18 17 17 17 17 15
30 28 27 27 22 10 7 13 10 5 10 11 12 17 17 10 4 4 2 2 2 1 1 1 2 1 1 1 1 2 3 2 2 1 2 1 2 3 1 3 0 1 3 1 3 6 3 3 6 3 3 5 4 7 10 11 9 6 6 8 5 3 3 3 2 3 3 3 5 6 4 5 1 4 7 10 13 18 16 14 14 15 16 17 15 15 16 15
30 26 24 24 20 11 8 8 5 3 8 11 15 15 9 4 3 3 2 1 0 2 1 1 1 1 3 3 2 2 2 1 1 2 2 2 4 5 4 4 4 3 4 4 4 6 3 0 3 4 3 3 3 3 3 5 7 4 1 2 3 4 4 4 5 3 1 4 6 5 0 5 2 4 7 13 19 21 17 13 15 17 17 17 16 15 16 16
27 23 19 17 15 11 8 4 3 4 7 12 14 8 3 4 2 1 2 3 1 1 2 2 1 1 2 1 1 2 2 1 2 3 1 1 4 5 5 4 2 2 3 3 3 6 5 1 3 5 2 2 3 3 4 4 1 3 3 4 1 2 2 1 3 1 3 5 6 2 4 3 4 5 9 15 17 16 14 13 16 19 19 17 16 16 15 14
24 19 14 9 10 11 9 6 5 5 9 14 10 4 4 4 2 1 2 4 1 1 2 1 2 1 2 3 2 1 2 2 2 2 2 3 5 5 8 8 6 2 1 1 3 5 5 4 5 3 2 6 7 3 2 3 2 2 3 4 3 2 1 2 2 1 3 5 7 2 4 0 4 4 10 16 16 15 15 15 15 17 20 19 18 17 15 15
21 15 10 7 10 11 10 8 6 7 12 13 6 3 4 4 2 3 3 3 3 3 4 5 6 4 3 3 1 2 4 3 2 3 4 6 5 4 7 11 11 5 1 3 3 2 2 3 4 4 3 6 8 5 2 2 1 2 4 5 4 3 4 3 2 2 3 4 6 3 2 2 3 4 9 16 17 15 14 16 15 15 17 17 15 15 14 15
18 12 8 8 10 10 9 6 6 8 8 7 4 4 5 3 2 3 3 3 4 5 8 8 6 2 2 3 1 2 3 1 2 5 8 8 6 5 6 7 11 7 3 4 1 2 2 4 3 4 5 3 8 9 6 3 2 3 1 5 3 4 5 2 3 5 3 1 4 3 1 4 5 6 7 9 13 15 16 17 16 15 15 14 12 13 14 15
18 13 7 8 9 7 5 3 4 6 2 4 5 4 4 2 2 2 2 4 3 5 8 8 6 3 3 3 2 3 3 2 3 4 6 7 8 8 6 4 9 9 4 3 1 2 2 4 6 6 4 5 11 11 6 4 3 2 2 2 5 4 6 2 3 2 3 2 3 2 2 4 4 6 9 5 7 12 16 16 16 17 16 15 14 15 15 15
20 16 8 7 5 1 3 3 4 5 2 5 4 4 2 1 2 3 3 4 4 4 5 5 5 4 4 4 4 5 4 2 3 3 2 4 6 8 6 4 8 10 6 3 2 1 0 4 5 5 4 8 14 11 6 8 5 3 2 5 4 2 3 3 0 2 2 2 3 2 2 4 3 4 7 8 9 9 11 15 16 16 17 17 17 17 18 18
18 13 8 7 1 4 4 4 6 5 3 4 4 4 2 1 2 2 3 5 4 4 6 3 3 4 5 4 4 6 7 3 3 3 2 3 3 5 6 4 7 11 10 5 2 1 1 3 5 5 6 9 13 9 6 10 11 6 4 5 2 2 1 1 1 1 0 2 3 3 2 2 3 4 6 7 10 8 5 9 13 13 15 18 17 18 20 18
11 6 5 5 1 4 3 4 5 4 5 3 3 3 1 3 5 5 5 5 4 4 4 2 3 5 5 5 3 6 8 6 4 4 3 3 2 5 8 5 5 10 10 8 5 3 3 3 4 3 7 7 7 6 5 8 12 10 8 7 4 1 3 1 2 4 3 2 2 2 3 3 3 4 8 9 8 11 11 7 11 13 15 17 16 16 17 16
5 2 3 5 1 3 2 4 3 5 4 2 2 2 2 4 6 9 10 9 4 2 3 4 4 4 5 7 6 5 6 7 7 5 5 4 2 5 10 8 6 8 7 10 9 4 4 4 3 5 7 4 2 5 5 5 8 8 8 8 7 4 1 1 1 2 4 3 3 1 2 2 3 6 9 13 13 13 15 10 10 15 15 17 17 16 16 16
4 2 3 5 3 1 1 3 3 2 2 2 3 3 5 5 6 9 12 12 6 3 5 6 6 5 4 6 6 5 4 6 8 7 6 6 5 4 8 9 7 7 5 7 8 5 3 2 3 6 6 2 2 3 6 6 4 2 5 6 6 6 4 2 2 2 1 3 4 4 3 1 3 6 8 10 12 14 18 16 8 13 17 17 17 16 17 17
2 1 4 9 8 2 3 4 2 1 3 3 5 6 6 5 6 8 10 10 7 5 5 5 5 5 4 4 5 4 4 6 7 6 6 7 8 5 7 9 8 5 4 3 3 4 2 1 3 4 5 6 5 4 4 5 3 6 7 7 6 6 5 3 2 4 3 2 1 3 3 3 1 7 10 10 11 14 17 18 13 5 12 16 17 17 17 18
2 3 7 16 13 2 4 5 3 4 4 5 8 8 7 5 5 7 8 8 6 5 6 5 5 6 6 6 6 6 5 4 6 6 6 6 9 8 8 10 8 5 4 2 3 5 4 3 4 5 6 6 4 4 3 8 8 7 6 8 7 6 6 3 4 3 2 3 4 2 3 3 4 9 11 11 11 13 16 18 18 13 5 6 13 16 17 17
2 4 6 18 21 8 5 4 3 4 4 5 8 7 5 5 5 6 7 7 6 4 4 6 6 6 6 7 8 8 6 4 5 7 5 4 5 7 10 11 9 6 5 3 2 3 3 2 3 4 6 7 3 3 5 8 8 5 4 7 8 9 11 7 3 1 2 1 3 1 4 3 7 9 11 12 12 13 16 18 18 17 14 9 4 9 11 13
3 1 5 12 21 13 4 2 3 4 3 4 7 6 4 3 4 6 7 7 7 5 4 5 6 7 7 7 9 9 8 5 3 4 4 4 3 4 8 9 8 6 6 7 7 3 2 2 3 3 1 5 3 3 4 6 6 5 5 8 9 11 13 8 3 3 2 2 4 1 2 6 10 11 13 12 11 13 15 18 20 18 18 16 8 2 1 1
2 2 3 6 10 8 3 3 4 4 3 3 4 5 5 4 4 6 8 6 7 8 6 5 7 7 8 8 8 8 8 6 4 3 3 3 2 3 6 8 8 8 9 12 11 4 2 3 2 5 4 5 5 4 5 6 7 6 7 8 8 9 10 7 3 2 1 4 5 3 1 8 12 13 14 11 9 11 13 16 17 18 20 20 15 11 11 12
1 2 3 3 4 5 4 5 5 5 4 4 3 5 8 8 6 7 7 5 6 7 6 6 8 8 7 7 5 4 6 6 6 5 3 2 1 1 4 5 7 11 12 10 8 4 3 3 1 3 4 5 6 7 8 9 9 8 8 8 6 7 9 7 5 4 3 4 5 4 3 8 10 11 11 9 8 9 12 12 12 15 18 18 16 17 18 18
2 0 2 1 1 4 4 5 6 8 8 7 4 5 9 11 8 6 6 5 6 7 4 5 8 8 7 6 4 3 5 5 6 6 4 4 2 2 5 5 5 9 10 7 5 4 4 1 2 1 3 5 6 8 9 9 9 9 8 6 5 6 7 7 7 7 5 3 6 8 7 6 8 10 10 9 9 9 11 10 9 12 16 16 17 20 20 18
3 1 4 3 2 2 4 6 8 9 10 7 4 6 8 9 9 6 5 5 5 6 5 4 6 7 8 7 5 5 5 4 4 6 5 6 7 5 5 5 4 6 7 5 4 3 3 1 4 4 5 6 7 9 10 10 11 12 10 6 5 6 7 8 9 9 8 7 8 8 6 4 5 7 9 9 8 7 9 10 11 12 13 15 17 18 18 18
3 1 3 3 3 3 4 6 6 6 7 6 4 5 6 8 8 6 4 4 3 5 5 5 4 6 6 6 6 5 3 4 3 3 4 5 5 4 3 2 3 5 4 2 2 2 3 1 4 4 4 4 6 8 9 11 12 14 14 9 5 6 7 7 8 7 7 8 8 8 6 3 4 5 8 7 6 8 10 11 11 10 9 12 14 16 17 17
5 2 3 1 2 5 4 3 4 5 4 4 3 4 5 5 6 4 3 4 3 2 2 4 4 4 4 7 7 4 3 4 3 3 3 2 2 1 1 1 2 4 3 0 1 1 2 1 2 4 3 4 4 6 10 12 13 15 14 9 5 4 4 4 5 6 7 8 10 9 6 4 4 5 6 6 7 9 11 10 9 9 9 11 12 14 15 15
10 6 6 3 2 5 3 2 4 4 2 3 3 5 4 3 4 4 2 5 5 2 3 3 4 3 4 6 3 1 1 1 1 3 3 2 3 3 3 3 2 1 0 0 1 0 2 1 1 1 1 3 3 5 8 9 9 9 7 5 6 6 5 5 6 7 7 5 5 5 3 4 6 4 4 5 7 9 9 9 8 8 10 11 12 13 13 13
Wind_Direction
3 3 4 8 10 9 6 3 1 358 358 357 354 352 351 350 349 348 345 341 338 332 324 315 312 315 319 324 319 319 322 317 316 258 231 257 225 188 164 174 174 161 160 168 174 167 172 198 218 209 202 218 224 230 231 224 172 136 191 177 225 217 213 233 189 129 110 117 133 128 128 141 133 157 147 117 128 93 72 57 36 233 154 133 138 145 149 152
1 0 1 4 7 8 6 2 358 355 355 354 353 351 350 349 348 347 345 342 340 336 328 318 313 316 318 321 318 317 321 316 307 261 242 249 195 183 164 164 186 182 172 173 184 180 167 187 206 201 189 205 222 218 222 204 164 171 179 183 228 211 220 215 135 121 117 135 145 130 124 122 123 143 156 158 133 118 126 105 208 171 135 131 142 148 153 155
359 358 359 0 3 5 5 2 357 353 352 352 350 349 349 348 347 346 345 343 341 339 333 327 320 320 320 316 320 320 322 323 297 268 247 201 179 182 174 167 181 186 187 186 188 189 185 185 191 187 183 230 238 230 230 199 182 194 183 224 240 206 229 149 129 121 125 135 131 126 112 105 128 138 160 152 135 152 163 171 204 160 141 145 150 153 158 157
358 357 357 357 359 0 1 1 358 353 349 349 348 348 348 348 348 347 346 343 340 342 340 339 334 329 326 313 325 326 324 347 290 258 153 175 179 179 179 177 178 185 194 198 194 196 205 204 193 189 190 224 245 241 240 223 196 180 191 225 231 180 202 163 133 124 130 133 128 131 126 128 149 147 185 159 146 177 193 205 190 155 150 152 152 157 160 158
358 357 356 356 356 357 357 358 357 353 348 345 345 346 346 348 349 347 346 343 343 346 346 348 346 336 337 325 330 328 336 40 270 231 155 177 185 182 181 177 180 187 193 207 206 201 222 257 215 206 205 221 240 236 235 229 217 209 214 223 218 163 185 168 137 134 135 131 131 139 146 162 151 165 197 174 172 194 196 203 173 153 156 154 154 159 160 159
357 357 356 355 354 354 353 354 355 353 348 343 342 342 344 347 348 348 346 344 346 353 358 5 6 4 359 345 329 328 46 71 255 231 178 168 179 187 188 182 183 193 201 208 204 197 214 222 202 212 212 226 227 228 240 227 218 241 244 229 211 192 181 156 144 143 138 136 144 150 148 147 157 189 189 186 210 241 332 204 165 156 158 155 155 158 161 159
356 356 355 353 352 351 350 350 351 351 348 343 340 338 339 343 347 348 346 345 348 356 9 17 20 28 360 354 333 17 90 266 247 210 178 156 170 181 187 187 187 196 204 201 190 185 189 186 205 213 220 234 227 234 249 242 230 239 256 247 209 198 175 151 154 152 146 147 150 147 141 149 177 183 175 196 206 150 346 254 168 157 156 157 157 160 162 155
353 354 354 352 349 348 348 348 348 348 346 343 340 337 336 340 343 344 346 346 343 351 5 8 14 6 343 350 327 20 226 248 211 180 167 156 174 180 181 187 192 196 196 194 189 185 178 192 216 217 229 236 227 231 239 251 252 240 247 253 213 185 156 148 157 154 147 145 143 144 148 164 177 154 168 201 174 144 204 228 167 156 156 161 159 160 159 151
351 352 351 350 347 346 346 345 346 345 344 342 339 337 335 336 339 340 345 345 338 338 343 340 331 321 328 321 226 17 241 229 181 168 158 150 165 180 183 187 192 191 189 197 194 185 181 199 214 210 234 249 248 248 244 243 250 245 243 245 206 152 153 159 158 154 147 142 151 152 151 164 166 143 187 201 157 147 168 178 163 156 158 164 161 161 158 151
349 351 349 348 346 344 344 344 344 343 342 339 337 336 333 334 336 335 339 341 335 327 329 328 311 300 317 310 113 123 229 181 169 169 156 158 157 173 188 190 189 188 188 195 193 193 200 205 209 215 254 261 256 255 249 232 253 275 270 267 200 159 164 163 153 153 144 146 165 157 149 160 157 160 218 180 152 144 135 132 153 157 162 165 163 162 158 154
348 349 348 346 345 343 342 343 341 341 339 337 335 333 331 332 332 332 335 335 328 321 327 331 322 296 213 77 121 194 226 163 176 187 172 174 172 174 191 193 190 188 187 187 196 205 210 220 237 298 286 270 270 264 256 244 280 294 282 297 210 160 158 153 153 158 144 155 179 147 127 140 121 187 234 154 148 142 137 130 142 171 171 166 164 161 161 158
348 348 347 345 344 342 342 341 340 340 337 334 334 330 329 329 329 330 331 330 324 316 324 341 358 120 113 58 208 217 226 169 183 198 178 180 211 191 185 192 195 193 189 182 204 212 214 230 245 252 260 289 304 279 280 284 306 311 290 300 167 144 150 159 162 166 156 162 172 129 88 149 158 207 219 150 150 144 139 139 156 192 177 167 165 157 164 164
348 348 347 345 343 342 341 341 340 338 335 333 330 329 328 325 325 327 326 326 320 308 316 352 24 129 100 154 236 243 263 230 229 205 186 204 253 211 177 190 199 200 196 192 208 215 217 230 236 239 255 273 288 277 300 315 323 324 311 281 156 126 165 178 168 172 168 163 168 141 78 238 216 217 201 154 156 149 142 147 166 199 179 168 168 158 167 169
348 348 347 346 344 343 342 341 340 338 335 332 328 328 327 323 323 321 317 315 307 293 290 338 91 140 105 253 267 298 297 256 247 231 196 205 224 203 192 198 203 206 201 202 216 221 225 242 251 255 257 246 259 300 309 322 338 325 327 312 174 136 197 187 170 174 168 166 177 157 90 214 217 219 195 167 167 154 151 160 175 193 174 168 171 161 168 171
348 348 347 346 344 343 342 341 340 338 335 331 329 328 325 323 319 311 306 300 289 264 265 316 195 162 53 279 287 321 292 237 227 222 197 199 205 199 202 200 203 207 201 205 224 242 250 264 265 252 257 247 284 341 320 325 340 337 5 320 288 177 223 188 177 180 163 164 190 180 121 202 206 206 187 169 174 163 160 166 173 178 168 169 174 163 168 174
347 348 348 347 345 344 342 341 341 339 335 332 330 328 328 327 316 301 295 280 263 242 248 341 186 182 38 282 295 320 257 219 221 214 203 207 200 193 202 195 195 203 203 205 224 249 259 269 268 245 243 245 278 325 344 338 328 348 143 256 279 208 239 194 179 186 168 153 196 213 191 175 192 194 180 169 175 168 165 167 167 171 168 171 175 164 167 172
347 348 348 347 345 344 342 342 342 340 336 332 332 333 338 342 321 282 287 250 228 224 230 355 149 191 268 284 297 292 238 204 208 193 191 206 208 205 204 188 183 190 200 206 216 237 249 255 260 256 224 183 223 162 37 307 282 319 245 226 262 209 226 232 175 185 175 158 188 217 216 188 175 176 175 175 174 167 170 171 167 171 171 173 176 168 167 172
347 348 348 347 345 343 341 341 342 342 337 332 334 336 346 5 1 114 107 108 105 88 260 292 40 95 265 281 277 259 237 183 170 101 173 204 207 204 206 204 180 165 182 207 215 223 213 240 258 284 233 199 232 161 159 230 213 244 254 239 283 274 243 243 212 172 174 171 184 202 216 202 167 167 176 179 173 170 174 173 168 173 172 173 176 171 171 175
347 348 347 345 343 341 340 339 342 343 337 332 340 346 2 25 39 100 103 114 109 57 304 242 174 91 312 271 255 273 294 225 208 194 200 220 198 193 208 211 178 148 148 179 222 218 183 243 249 210 235 210 225 189 171 223 222 228 254 259 274 286 266 248 256 172 171 179 189 192 198 180 167 170 177 178 175 174 175 170 168 175 174 173 176 174 175 178
347 347 345 343 340 338 336 337 340 342 338 338 345 352 13 24 22 34 21 152 190 235 260 252 213 263 302 287 291 309 291 263 219 206 215 220 186 176 236 128 127 145 145 157 203 212 170 191 222 213 222 210 223 209 187 232 259 265 283 294 283 278 277 264 272 189 170 179 196 191 184 173 173 177 177 177 179 178 175 173 173 175 176 177 177 173 176 181
345 345 344 342 338 334 333 334 339 342 343 345 350 356 5 5 21 317 326 290 250 228 242 262 246 256 272 269 277 310 355 309 279 243 229 209 156 138 291 73 107 174 180 173 183 181 165 194 227 223 221 215 223 219 208 230 248 263 266 276 283 269 272 270 272 240 178 186 199 188 180 178 178 178 178 178 181 184 179 177 177 176 175 178 179 174 175 179
344 344 342 341 337 332 331 333 337 344 351 350 351 355 285 331 74 1 337 308 285 253 242 267 262 260 260 258 262 251 97 2 310 289 235 196 139 149 225 107 141 202 201 189 177 158 186 218 231 225 220 219 231 228 221 229 235 247 246 254 270 259 277 275 268 266 188 197 194 183 181 187 184 176 178 182 183 185 182 180 180 177 174 176 178 176 174 175
344 342 342 341 336 331 330 332 336 349 355 344 332 318 321 356 23 358 349 294 290 285 255 257 253 258 257 256 255 162 112 167 287 281 205 162 138 169 158 141 185 199 186 193 181 157 189 237 228 221 215 213 229 233 224 229 232 237 232 237 258 253 267 270 269 1 324 244 190 181 180 180 177 175 183 188 184 181 183 184 181 179 178 178 179 176 174 176
342 341 342 340 336 332 330 332 339 358 349 340 331 343 0 11 9 2 5 201 282 284 247 228 229 243 247 240 177 127 117 185 223 261 189 141 133 172 153 170 189 192 197 199 195 181 204 235 225 216 221 217 223 234 227 226 238 240 228 222 245 254 247 245 270 327 327 298 178 157 131 92 176 185 192 188 183 183 183 181 181 187 183 177 178 177 176 177
341 341 341 341 338 332 329 330 349 354 345 348 8 359 1 5 4 10 35 77 297 284 248 227 219 228 263 142 156 142 99 242 241 235 180 135 130 133 150 197 176 203 217 200 196 201 223 236 223 202 221 229 226 233 226 211 228 249 235 222 230 247 251 253 274 305 341 335 139 128 117 266 219 200 193 176 181 188 184 182 182 186 184 177 181 180 180 180
340 338 339 341 339 334 334 336 344 343 338 347 9 358 353 354 354 356 31 68 320 269 190 196 176 198 276 155 162 88 60 307 278 236 145 127 122 107 108 301 325 214 217 198 199 198 221 233 223 197 207 219 225 239 231 204 204 246 240 223 226 241 255 260 275 280 221 290 178 130 134 205 249 224 208 186 185 188 186 188 186 184 185 182 183 184 181 181
338 337 338 339 340 341 338 308 327 336 325 333 355 355 348 343 342 346 38 68 327 252 154 317 330 161 242 193 112 81 97 263 299 352 143 146 118 78 97 271 312 273 294 55 212 216 217 230 229 214 205 208 216 234 232 200 180 238 247 232 235 255 265 264 268 259 221 192 291 118 126 129 211 221 212 195 185 189 194 196 193 189 191 187 186 186 183 182
335 336 337 334 337 340 319 299 321 328 330 341 347 349 342 334 336 352 87 73 330 226 134 297 309 284 263 81 87 113 201 221 277 289 212 146 126 75 103 241 213 250 288 80 207 261 258 236 241 229 212 211 209 220 227 207 185 233 251 244 240 251 265 285 289 277 266 236 298 290 133 124 233 221 197 187 185 195 204 203 199 194 192 191 189 188 187 184
332 335 336 330 332 339 313 307 307 301 338 349 349 344 333 330 346 48 96 72 85 297 309 350 337 289 256 80 88 193 225 166 172 251 218 127 173 89 156 227 197 239 275 175 216 261 264 284 285 264 215 213 208 215 217 207 206 228 242 247 247 250 273 356 39 340 357 220 241 262 175 132 267 237 168 178 195 203 208 205 202 198 193 192 192 190 189 185
331 332 335 328 328 335 317 302 286 302 351 352 342 333 325 332 31 76 45 84 121 313 282 331 337 282 133 80 294 232 211 190 185 223 34 51 348 40 148 252 83 20 309 305 259 259 243 257 270 256 214 226 235 226 208 196 211 227 243 253 266 313 343 30 53 63 30 289 244 248 210 134 257 259 174 181 199 204 208 202 198 199 196 195 194 192 192 188
330 331 332 325 318 314 304 294 278 322 342 335 331 329 331 8 76 94 61 88 130 321 282 259 308 226 158 162 231 234 203 202 126 82 17 7 20 11 355 357 9 15 2 348 303 292 307 110 254 257 239 252 283 292 232 194 199 197 182 253 258 312 357 15 0 36 108 269 251 242 139 117 173 256 201 198 204 204 205 197 192 196 197 197 196 192 193 191
331 331 328 318 307 289 270 278 307 305 318 333 337 341 43 56 36 98 27 344 333 291 283 246 225 217 183 173 188 185 166 50 57 89 82 66 51 31 38 31 343 5 358 325 331 328 321 319 268 262 250 348 343 335 336 349 58 146 107 83 125 301 351 325 314 302 206 256 250 210 66 103 219 240 208 205 210 209 209 204 196 195 195 196 196 194 193 191
338 335 325 309 295 282 271 289 316 310 327 342 352 24 82 75 36 24 358 342 10 238 294 323 325 6 76 36 20 111 93 46 43 63 54 70 75 56 45 28 12 50 164 341 25 354 328 328 336 319 330 359 357 352 302 315 24 138 152 119 139 149 108 228 258 272 242 270 271 225 92 232 272 263 209 201 209 210 208 210 204 198 197 195 194 192 191 191
347 342 327 288 279 286 281 283 293 300 322 342 15 59 60 75 31 6 25 353 333 330 346 354 332 333 59 43 12 50 46 43 32 45 45 48 52 36 29 21 15 16 107 59 42 9 358 315 347 21 320 328 354 355 295 236 208 232 190 139 135 152 148 193 197 187 235 275 299 332 89 190 230 254 211 194 204 209 207 210 204 199 199 195 193 189 189 192
351 345 322 276 276 292 286 267 267 284 311 353 48 65 60 63 335 351 11 326 326 344 346 349 342 326 10 21 66 51 55 58 7 53 67 62 50 27 27 16 8 5 32 58 6 346 25 261 295 358 288 315 5 344 332 333 303 278 182 117 145 188 155 160 195 180 171 317 317 327 253 214 209 257 254 200 198 203 209 213 202 198 197 186 187 190 191 194
352 350 322 279 288 291 264 226 233 254 294 48 55 58 74 73 329 333 332 312 321 338 341 355 15 17 344 6 30 7 34 73 41 65 83 77 56 29 28 15 7 11 33 74 37 13 27 275 306 332 305 37 10 330 331 352 290 279 32 164 217 193 137 128 271 243 116 121 282 277 254 292 303 293 292 273 222 206 207 212 202 196 190 178 185 194 194 194
350 351 330 300 313 182 144 129 190 202 117 73 72 67 67 40 317 321 338 332 312 332 15 28 15 9 6 20 14 356 14 46 40 50 68 71 47 12 9 13 9 9 16 80 111 44 42 270 312 350 353 9 350 330 5 23 16 48 334 267 271 352 96 113 328 328 64 135 271 259 203 293 313 287 304 301 270 236 205 208 208 196 182 182 191 193 193 194
344 344 323 312 331 129 85 94 166 161 89 51 67 72 52 6 354 349 356 348 333 9 49 56 360 19 37 32 358 356 18 21 7 42 51 56 43 358 359 2 1 5 10 45 77 345 2 293 307 28 26 347 344 1 23 3 8 31 332 305 341 40 10 49 124 210 109 149 264 284 259 263 229 248 310 306 277 286 275 226 218 200 184 188 194 194 194 193
347 352 329 334 93 133 84 128 155 94 64 42 53 61 41 35 23 15 8 2 11 39 47 36 13 34 42 40 9 359 27 38 29 56 61 46 38 349 360 358 346 2 19 50 51 320 18 12 287 5 28 350 345 25 25 342 349 3 2 357 4 173 188 194 177 173 154 173 221 309 319 299 250 283 335 347 333 337 336 280 224 209 196 192 195 194 193 189
2 22 294 327 50 148 122 123 88 53 69 60 66 56 33 47 23 14 17 18 28 55 41 31 29 37 34 34 26 4 28 45 43 63 56 39 68 11 6 1 344 352 19 50 45 357 21 46 286 315 2 14 52 35 18 349 340 347 4 10 358 338 313 164 239 182 143 156 169 167 273 291 350 346 1 7 358 351 346 324 238 211 197 194 198 193 188 187
6 35 269 323 6 174 88 62 41 77 116 31 51 57 44 47 21 14 19 21 30 47 51 56 53 49 35 35 30 1 24 51 50 68 61 37 57 32 1 359 357 360 11 37 37 14 14 39 317 323 339 5 79 6 330 315 309 18 36 19 8 353 356 31 317 289 130 147 164 170 215 202 27 356 1 7 358 358 358 347 291 216 195 194 198 192 187 186
29 36 279 338 344 277 65 46 329 91 102 58 49 46 48 51 26 16 16 22 32 26 30 50 52 47 38 40 43 17 36 58 46 65 80 53 51 38 359 3 12 28 48 46 10 351 14 46 340 319 283 273 259 253 308 345 30 73 52 17 11 6 7 40 281 297 337 333 164 140 196 200 54 4 1 1 1 8 9 359 344 274 202 198 195 188 188 188
46 294 305 354 358 303 73 42 344 16 60 79 67 51 46 51 39 28 22 25 28 17 28 33 26 43 38 32 45 36 35 52 42 57 90 70 51 37 14 10 12 26 47 41 336 339 9 37 347 321 293 288 251 183 80 43 48 55 28 6 6 352 338 311 244 257 354 352 1 34 213 238 354 4 0 356 1 14 17 10 3 2 344 230 203 189 186 188
354 265 296 9 22 43 77 52 31 34 42 79 82 71 57 48 43 42 34 26 16 10 41 32 21 43 40 36 53 46 37 57 47 41 60 73 56 36 22 15 15 29 36 23 356 344 8 50 32 2 329 325 4 63 27 20 29 23 343 346 352 341 336 328 293 340 59 12 356 333 218 286 341 351 356 359 7 16 20 17 12 13 9 348 243 198 193 191
347 256 260 4 25 40 65 69 93 80 43 60 75 70 70 59 36 42 43 32 24 32 53 38 35 50 43 41 54 45 43 69 65 31 44 59 62 41 25 13 14 33 40 32 29 35 90 86 90 90 344 292 312 359 334 330 345 341 323 337 352 349 343 338 340 15 26 336 338 295 232 320 335 346 352 356 8 18 21 20 15 13 12 10 15 74 139 215
17 32 305 336 12 30 30 6 60 79 37 44 60 34 43 61 30 32 42 36 33 47 60 46 41 52 43 40 50 38 31 51 65 60 55 48 42 25 15 11 18 32 39 34 23 22 110 82 111 147 175 238 255 266 275 288 299 306 318 335 348 341 333 336 352 353 333 327 313 242 127 349 336 339 345 345 2 22 29 26 16 12 14 15 20 40 48 36
68 37 6 337 344 12 15 9 36 49 27 51 61 11 31 46 28 17 21 23 36 46 52 40 37 47 38 34 55 39 17 36 51 44 45 66 133 134 17 23 36 35 34 29 17 31 81 34 17 166 208 247 263 280 291 294 292 296 308 320 330 326 328 340 333 303 320 342 299 272 10 1 325 318 334 343 357 25 40 38 24 15 14 14 16 27 38 38
47 6 337 344 10 14 10 19 44 43 32 47 58 34 40 40 31 20 2 3 29 37 43 38 34 46 46 39 61 43 17 32 31 9 6 20 15 20 16 15 38 40 34 19 8 57 93 317 312 16 319 303 310 314 312 305 299 301 302 302 308 315 319 315 300 296 311 300 264 283 329 345 308 316 345 358 3 30 50 52 45 28 13 11 18 24 29 29
36 26 325 345 63 38 19 34 51 46 34 36 46 44 48 40 27 15 359 4 15 20 48 58 24 35 50 51 65 51 27 43 24 357 3 9 1 8 7 347 3 33 40 27 1 46 96 319 328 359 343 326 327 322 320 325 324 318 316 315 303 292 291 288 287 289 288 269 259 287 329 336 302 334 15 17 2 26 51 54 56 46 21 13 20 23 23 23
41 31 322 347 23 17 27 37 48 52 34 30 42 36 45 51 30 359 1 39 23 0 35 62 35 29 42 50 67 68 56 82 64 360 9 16 0 5 10 347 347 358 20 41 346 42 95 324 326 2 356 325 326 328 330 337 331 317 314 321 312 282 274 273 277 284 288 284 284 300 323 312 288 353 35 39 20 30 42 43 52 57 37 24 27 24 20 18
17 341 344 60 27 7 28 43 49 68 36 14 42 35 36 53 30 353 346 12 23 23 29 63 76 57 40 46 58 62 49 62 48 340 347 6 309 254 219 284 329 339 345 357 303 60 106 269 334 26 355 301 324 341 333 333 328 312 305 312 314 288 274 283 292 301 303 301 303 312 323 299 288 348 35 50 42 41 40 34 42 57 49 38 34 29 20 13
11 355 11 81 85 10 35 63 40 66 55 3 40 53 55 53 17 22 27 345 343 350 354 38 96 91 61 64 73 166 163 111 297 289 289 273 267 256 244 266 312 349 318 110 348 63 142 158 347 36 288 289 341 346 333 338 331 302 281 299 317 316 324 331 324 317 321 329 324 321 320 290 292 338 47 56 47 50 45 31 29 43 49 45 38 33 22 8